[[{"header":{"parameterUnit":"m.s-1","parameterCategory":1,"la1":30.2991,"la2":30.254,"lo1":-89.0895,"lo2":-89.0444,"dy":0.0017,"dx":0.0017,"nx":28,"ny":28,"refTime":"2025-04-22T09:00:00:Z","depth":0,"parameterNumber":2,"parameterNumberName":"U-component_of_WINDS"},"data":[0,0,0,0,0,0,0,0,0,0,0,0,0,0,0,0,0,0,0,0,0,0,0,0,0,0,0,0,0,0,0,0,0,0,0,0,0,0,0,0,0,0,0,0,0,0,0,0,0,0,0,0,0,0,0,0,0,0,-0.792,-0.792,0,-0.7971,-0.7971,-0.7972,-0.7996,-0.7996,-0.7996,-0.7996,-0.805,-0.8051,-0.8053,0,0,0,0,0,0,0,0,0,0,0,0,0,-0.7845,-0.7846,-0.792,-0.792,-0.7921,-0.7971,-0.7971,-0.7972,-0.7996,-0.7996,-0.7996,-0.7996,-0.8049,-0.8051,-0.8053,0,0,0,0,0,0,0,0,0,0,0,0,0,-0.7885,-0.7847,-0.7919,-0.7939,-0.7941,-0.797,-0.7971,-0.7972,-0.7996,-0.7996,-0.7996,-0.7996,-0.8049,-0.8051,-0.8053,-0.8068,0,0,-0.806,-0.8061,0,0,0,0,0,0,0,0,-0.7883,-0.7888,-0.7935,-0.7937,-0.794,-0.7977,-0.7965,-0.8004,-0.7996,-0.7975,-0.7996,-0.7996,-0.8026,-0.803,-0.804,-0.8071,-0.8073,-0.806,-0.8061,-0.8062,-0.8063,0,0,0,0,0,0,0,-0.788,-0.7886,-0.794,-0.7936,-0.7939,-0.7945,-0.7951,-0.7973,-0.8,-0.7977,-0.7979,-0.7984,-0.8027,-0.8037,-0.8041,-0.8074,-0.806,-0.8062,-0.8063,-0.8064,-0.812,-0.812,0,0,0,0,0,0,-0.7874,-0.7883,-0.7938,-0.7941,-0.791,-0.7947,-0.7953,-0.7965,-0.8,-0.8005,-0.7984,-0.7985,-0.8034,-0.8038,-0.8043,-0.8063,-0.8062,-0.8064,-0.8066,-0.812,-0.812,-0.8121,0,0,0,0,0,0,-0.7872,-0.7878,-0.7936,-0.7913,-0.7921,-0.7948,-0.7961,-0.7966,-0.7976,-0.8006,-0.8011,-0.799,-0.8034,-0.804,-0.8062,-0.8065,-0.8065,-0.8068,-0.812,-0.812,-0.812,-0.8103,0,0,0,0,0,0,-0.787,-0.7877,-0.7883,-0.7913,-0.7922,-0.7953,-0.7962,-0.7967,-0.798,-0.7982,-0.8012,-0.8017,-0.8034,-0.8058,-0.8064,-0.8068,-0.8069,-0.812,-0.812,-0.812,-0.8104,-0.8103,-0.8102,0,0,0,0,0,-0.7867,-0.7876,-0.7883,-0.789,-0.7929,-0.7953,-0.7959,-0.7978,-0.798,-0.7986,-0.8005,-0.8016,-0.8064,-0.806,-0.8067,-0.8072,-0.812,-0.812,-0.812,-0.8104,-0.8103,-0.8102,0,0,0,0,0,0,-0.7847,-0.7881,-0.7888,-0.7908,-0.7927,-0.7957,-0.7965,-0.7976,-0.7996,-0.7997,-0.802,-0.8027,-0.8047,-0.8062,-0.8057,-0.8089,-0.8093,-0.8095,-0.8078,-0.8077,-0.8077,-0.8073,-0.8071,0,0,0,0,0,-0.7845,-0.7861,-0.789,-0.7904,-0.7913,-0.7938,-0.7949,-0.7962,-0.7984,-0.7992,-0.8013,-0.8034,-0.8054,-0.8067,-0.8087,-0.8106,-0.8113,-0.8113,-0.8112,-0.8111,-0.8113,-0.8124,-0.8125,-0.8122,-0.8122,-0.8122,0,0,-0.784,-0.7861,-0.787,-0.79,-0.7917,-0.7934,-0.7945,-0.7962,-0.7975,-0.7995,-0.8017,-0.8033,-0.8058,-0.8079,-0.8089,-0.8092,-0.8115,-0.8112,-0.8111,-0.8113,-0.8125,-0.8125,-0.8125,-0.8122,-0.8122,-0.8122,0,0,-0.7841,-0.7858,-0.7872,-0.7888,-0.7913,-0.793,-0.7933,-0.7961,-0.7972,-0.7994,-0.801,-0.8026,-0.806,-0.8077,-0.8091,-0.8098,-0.811,-0.8104,-0.8101,-0.8112,-0.8112,-0.8113,-0.8116,-0.8116,-0.8106,-0.8105,-0.8105,0,-0.7833,-0.7858,-0.7878,-0.7894,-0.7908,-0.7926,-0.7941,-0.7956,-0.7987,-0.7996,-0.7999,-0.8042,-0.806,-0.8085,-0.8087,-0.8097,-0.8102,-0.8101,-0.811,-0.8111,-0.8112,-0.8115,-0.8116,-0.8105,-0.8105,-0.8105,-0.8105,0,-0.7847,-0.7864,-0.7873,-0.7901,-0.7916,-0.7931,-0.7954,-0.7966,-0.7978,-0.7994,-0.8016,-0.8039,-0.8064,-0.8071,-0.8083,-0.8098,-0.8099,-0.8106,-0.8111,-0.8111,-0.8114,-0.8116,-0.8104,-0.8104,-0.8104,-0.8104,0,0,-0.7836,-0.7875,-0.7878,-0.7891,-0.7921,-0.7935,-0.7952,-0.7975,-0.7986,-0.8007,-0.8022,-0.805,-0.8056,-0.8071,-0.8086,-0.8095,-0.81,-0.8101,-0.8102,-0.81,-0.8119,-0.8114,-0.8115,-0.8108,-0.8108,-0.8109,-0.8117,0,-0.7841,-0.7871,-0.7889,-0.7912,-0.7929,-0.7947,-0.7962,-0.7982,-0.7997,-0.8014,-0.8032,-0.8052,-0.8059,-0.8068,-0.8078,-0.8097,-0.8105,-0.8097,-0.8123,-0.8123,-0.8116,-0.8117,-0.8111,-0.8118,-0.8118,-0.8119,-0.8119,0,-0.7851,-0.7871,-0.7895,-0.7922,-0.793,-0.7943,-0.7966,-0.7982,-0.8006,-0.8016,-0.8033,-0.8047,-0.8067,-0.807,-0.8097,-0.8092,-0.8103,-0.8114,-0.8115,-0.8118,-0.8121,-0.812,-0.812,-0.8121,-0.8121,-0.8121,-0.8121,0,-0.7841,-0.7874,-0.7892,-0.7903,-0.7936,-0.7944,-0.7959,-0.7982,-0.7995,-0.8016,-0.8025,-0.8048,-0.8061,-0.8078,-0.8099,-0.8099,-0.8124,-0.8129,-0.8134,-0.8134,-0.8138,-0.8138,-0.8141,-0.8146,-0.8146,-0.8146,-0.8146,0,-0.7845,-0.7859,-0.7888,-0.79,-0.7917,-0.7938,-0.7954,-0.797,-0.799,-0.8006,-0.8023,-0.8038,-0.8063,-0.8081,-0.8098,-0.8118,-0.8123,-0.8133,-0.8137,-0.8132,-0.813,-0.8139,-0.814,-0.8146,-0.8146,-0.8146,-0.8146,0,-0.7836,-0.7856,-0.7878,-0.7907,-0.7915,-0.7926,-0.7951,-0.7964,-0.798,-0.8,-0.8005,-0.8032,-0.8054,-0.8076,-0.8105,-0.8116,-0.8136,-0.8142,-0.8128,-0.813,-0.8134,-0.8134,-0.8144,-0.8146,-0.8149,-0.8149,-0.8149,0,-0.7837,-0.7848,-0.7878,-0.789,-0.7903,-0.7921,-0.7935,-0.7956,-0.797,-0.7998,-0.8007,-0.803,-0.8049,-0.8084,-0.8106,-0.8129,-0.8135,-0.8137,-0.8139,-0.8133,-0.8136,-0.8135,-0.8136,-0.8136,-0.8136,-0.8136,-0.8136,0,-0.7837,-0.7846,-0.7864,-0.7886,-0.7902,-0.792,-0.794,-0.7948,-0.7974,-0.7988,-0.801,-0.8026,-0.8056,-0.8079,-0.8104,-0.812,-0.8133,-0.8135,-0.8138,-0.8132,-0.8124,-0.8129,-0.8126,-0.8135,-0.8135,-0.8135,-0.8135,-0.8135,-0.7833,-0.7844,-0.7867,-0.7887,-0.7904,-0.7921,-0.7934,-0.7952,-0.7971,-0.7997,-0.8009,-0.8031,-0.8055,-0.8091,-0.8106,-0.8124,-0.8128,-0.8131,-0.8132,-0.8133,-0.8131,-0.8121,-0.8129,-0.8129,-0.8129,-0.8129,-0.8129,0,-0.7834,-0.7849,-0.7867,-0.7894,-0.7909,-0.7919,-0.7941,-0.7954,-0.7973,-0.7994,-0.8013,-0.8039,-0.8061,-0.8085,-0.8109,-0.8119,-0.8126,-0.8125,-0.8125,-0.8128,-0.8127,-0.8122,-0.8119,-0.8119,-0.8119,-0.8119,-0.8119,-0.8119,-0.7836,-0.7855,-0.7867,-0.7895,-0.7911,-0.7932,-0.7944,-0.7961,-0.7977,-0.8005,-0.8024,-0.8039,-0.8061,-0.8087,-0.8108,-0.8115,-0.8123,-0.8121,-0.8129,-0.8127,-0.8128,-0.8129,-0.8125,-0.8122,-0.8122,-0.8128,-0.8128,-0.8129]},{"header":{"parameterUnit":"m.s-1","parameterCategory":1,"la1":30.2991,"la2":30.254,"lo1":-89.0895,"lo2":-89.0444,"dy":0.0017,"dx":0.0017,"nx":28,"ny":28,"refTime":"2025-04-22T09:00:00:Z","depth":0,"parameterNumber":3,"parameterNumberName":"V-component_of_WINDS"},"data":[0,0,0,0,0,0,0,0,0,0,0,0,0,0,0,0,0,0,0,0,0,0,0,0,0,0,0,0,0,0,0,0,0,0,0,0,0,0,0,0,0,0,0,0,0,0,0,0,0,0,0,0,0,0,0,0,0,0,1.4046,1.4046,0,1.4046,1.4046,1.4046,1.4048,1.4048,1.4048,1.4048,1.4049,1.4049,1.4049,0,0,0,0,0,0,0,0,0,0,0,0,0,1.4046,1.4046,1.4046,1.4046,1.4046,1.4046,1.4046,1.4046,1.4048,1.4048,1.4048,1.4048,1.4049,1.4049,1.4049,0,0,0,0,0,0,0,0,0,0,0,0,0,1.4046,1.4046,1.4046,1.4047,1.4047,1.4046,1.4046,1.4046,1.4048,1.4048,1.4048,1.4048,1.4049,1.4049,1.4049,1.4048,0,0,1.4049,1.4049,0,0,0,0,0,0,0,0,1.4046,1.4046,1.4047,1.4047,1.4047,1.4047,1.4047,1.4047,1.4048,1.4048,1.4048,1.4048,1.4048,1.4049,1.4049,1.4048,1.4048,1.4049,1.4049,1.4049,1.4049,0,0,0,0,0,0,0,1.4046,1.4046,1.4046,1.4047,1.4047,1.4047,1.4047,1.4047,1.4048,1.4048,1.4048,1.4048,1.4049,1.4049,1.4049,1.4048,1.4049,1.4049,1.4049,1.4049,1.4045,1.4045,0,0,0,0,0,0,1.4046,1.4046,1.4046,1.4046,1.4047,1.4047,1.4047,1.4047,1.4048,1.4048,1.4048,1.4048,1.4049,1.4049,1.4049,1.4047,1.4049,1.4049,1.4049,1.4045,1.4045,1.4045,0,0,0,0,0,0,1.4046,1.4046,1.4046,1.4046,1.4046,1.4047,1.4047,1.4047,1.4047,1.4048,1.4048,1.4048,1.4049,1.4049,1.4048,1.4047,1.4049,1.4049,1.4046,1.4045,1.4045,1.4043,0,0,0,0,0,0,1.4046,1.4046,1.4046,1.4046,1.4046,1.4045,1.4047,1.4047,1.4047,1.4047,1.4048,1.4048,1.4049,1.4048,1.4048,1.4047,1.4049,1.4046,1.4046,1.4045,1.4043,1.4043,1.4043,0,0,0,0,0,1.4046,1.4045,1.4045,1.4045,1.4046,1.4045,1.4045,1.4046,1.4047,1.4046,1.4047,1.4048,1.4047,1.4048,1.4048,1.4047,1.4046,1.4046,1.4045,1.4043,1.4043,1.4043,0,0,0,0,0,0,1.4045,1.4045,1.4046,1.4045,1.4045,1.4046,1.4045,1.4046,1.4046,1.4046,1.4047,1.4047,1.4046,1.4046,1.4047,1.4045,1.4046,1.4046,1.4045,1.4045,1.4044,1.4044,1.4049,0,0,0,0,0,1.4044,1.4044,1.4044,1.4044,1.4043,1.4044,1.4044,1.4045,1.4045,1.4045,1.4045,1.4045,1.4045,1.4045,1.4045,1.4043,1.4043,1.4042,1.4042,1.4042,1.4042,1.4041,1.404,1.4045,1.4045,1.4045,0,0,1.4043,1.4044,1.4043,1.4043,1.4043,1.4043,1.4044,1.4044,1.4043,1.4045,1.4044,1.4044,1.4044,1.4043,1.4043,1.4043,1.404,1.4042,1.4041,1.4041,1.404,1.404,1.404,1.4045,1.4045,1.4045,0,0,1.4042,1.4042,1.4041,1.4041,1.4041,1.4041,1.4041,1.4041,1.4042,1.4041,1.4042,1.4041,1.4041,1.4041,1.404,1.4038,1.4039,1.4038,1.4036,1.4035,1.4035,1.4034,1.4033,1.4033,1.4038,1.4038,1.4038,0,1.4041,1.404,1.4041,1.404,1.404,1.4041,1.404,1.404,1.404,1.4039,1.404,1.4039,1.4039,1.4038,1.4037,1.4037,1.4037,1.4038,1.4035,1.4034,1.4034,1.4033,1.4033,1.4037,1.4037,1.4037,1.4037,0,1.4039,1.4038,1.4037,1.4037,1.4037,1.4036,1.4036,1.4036,1.4036,1.4036,1.4035,1.4035,1.4035,1.4035,1.4035,1.4033,1.4034,1.4034,1.4036,1.4034,1.4032,1.4032,1.4037,1.4037,1.4037,1.4037,0,0,1.4036,1.4036,1.4036,1.4035,1.4035,1.4035,1.4034,1.4033,1.4033,1.4032,1.4031,1.4031,1.4031,1.4031,1.4032,1.4031,1.4028,1.4032,1.4032,1.4031,1.4026,1.4025,1.4025,1.4029,1.4029,1.4029,1.4026,0,1.4035,1.4033,1.4033,1.4031,1.4031,1.4031,1.403,1.403,1.403,1.4029,1.4029,1.4029,1.403,1.403,1.4029,1.4029,1.4027,1.4029,1.4028,1.4028,1.4028,1.4024,1.4023,1.4021,1.4025,1.4025,1.4025,0,1.4032,1.4032,1.403,1.4029,1.4029,1.4028,1.4027,1.4027,1.4026,1.4026,1.4026,1.4026,1.4025,1.4026,1.4024,1.4026,1.4025,1.4025,1.4025,1.4025,1.4026,1.4024,1.402,1.4019,1.4025,1.4025,1.4025,0,1.4031,1.4029,1.4028,1.4028,1.4027,1.4026,1.4026,1.4026,1.4025,1.4024,1.4024,1.4023,1.4023,1.4022,1.4022,1.4023,1.402,1.4022,1.402,1.402,1.402,1.402,1.4015,1.4019,1.4019,1.4019,1.4019,0,1.4029,1.4028,1.4027,1.4026,1.4025,1.4025,1.4023,1.4023,1.4023,1.4022,1.4022,1.4021,1.4021,1.402,1.4021,1.4019,1.4019,1.4019,1.4019,1.4019,1.4019,1.4018,1.4019,1.4019,1.4019,1.4019,1.4019,0,1.4027,1.4027,1.4025,1.4024,1.4024,1.4023,1.4022,1.4021,1.4021,1.402,1.4019,1.4019,1.4018,1.4018,1.4017,1.4017,1.4015,1.4015,1.4015,1.4015,1.4013,1.4013,1.4009,1.4008,1.4012,1.4012,1.4012,0,1.4026,1.4025,1.4024,1.4023,1.4022,1.4021,1.402,1.402,1.4019,1.4018,1.4018,1.4016,1.4015,1.4013,1.4013,1.4012,1.4012,1.401,1.4012,1.4012,1.4012,1.4012,1.4012,1.401,1.401,1.401,1.401,0,1.4023,1.4023,1.4022,1.4021,1.402,1.4019,1.4018,1.4017,1.4017,1.4016,1.4014,1.4014,1.4012,1.4011,1.4009,1.4009,1.4009,1.401,1.4009,1.4009,1.4009,1.4009,1.4014,1.401,1.401,1.401,1.401,1.401,1.4022,1.4021,1.402,1.4018,1.4017,1.4016,1.4015,1.4015,1.4013,1.4012,1.4012,1.401,1.4009,1.4008,1.4007,1.4006,1.4006,1.4006,1.4005,1.4005,1.4005,1.4009,1.4005,1.4005,1.4005,1.4005,1.4005,0,1.4019,1.4019,1.4017,1.4016,1.4014,1.4014,1.4013,1.4012,1.4011,1.401,1.4008,1.4007,1.4005,1.4004,1.4003,1.4002,1.4002,1.4002,1.4002,1.4002,1.4005,1.4005,1.4002,1.4002,1.4002,1.4002,1.4002,1.4002,1.4018,1.4016,1.4016,1.4013,1.4012,1.401,1.401,1.4009,1.4008,1.4005,1.4004,1.4003,1.4003,1.4001,1.3999,1.3999,1.3999,1.3998,1.3998,1.4001,1.4001,1.4002,1.4002,1.3998,1.3998,1.3995,1.3995,1.3995]}]]